TimeCDT,TemperatureF,Dew PointF,Humidity,Sea Level PressureIn,VisibilityMPH,Wind Direction,Wind SpeedMPH,Gust SpeedMPH,PrecipitationIn,Events,Conditions,WindDirDegrees,DateUTC
12:52 AM,71.1,68.0,90,29.86,10.0,WNW,3.5,-,N/A,,Mostly Cloudy,300,2012-09-06 05:52:00
1:52 AM,71.1,66.9,87,29.87,10.0,West,3.5,-,N/A,,Partly Cloudy,280,2012-09-06 06:52:00
2:52 AM,69.1,66.9,93,29.88,10.0,West,3.5,-,N/A,,Clear,260,2012-09-06 07:52:00
3:52 AM,66.9,64.9,93,29.89,9.0,Calm,Calm,-,N/A,,Clear,0,2012-09-06 08:52:00
4:52 AM,64.9,63.0,93,29.91,10.0,Calm,Calm,-,N/A,,Clear,0,2012-09-06 09:52:00
5:52 AM,64.9,62.1,90,29.92,10.0,Calm,Calm,-,N/A,,Clear,0,2012-09-06 10:52:00
6:52 AM,66.0,60.1,81,29.94,10.0,Calm,Calm,-,N/A,,Clear,0,2012-09-06 11:52:00
7:52 AM,68.0,59.0,73,29.96,10.0,NNW,5.8,-,N/A,,Clear,330,2012-09-06 12:52:00
8:52 AM,71.1,59.0,66,29.96,10.0,North,4.6,-,N/A,,Clear,350,2012-09-06 13:52:00
9:52 AM,75.0,59.0,57,29.97,10.0,Calm,Calm,-,N/A,,Clear,0,2012-09-06 14:52:00
10:52 AM,78.1,52.0,40,29.98,10.0,Calm,Calm,-,N/A,,Clear,0,2012-09-06 15:52:00
11:52 AM,80.1,51.1,36,29.97,10.0,West,6.9,-,N/A,,Clear,260,2012-09-06 16:52:00
12:52 PM,81.0,48.9,33,29.95,10.0,WSW,4.6,-,N/A,,Clear,250,2012-09-06 17:52:00
1:52 PM,82.0,48.0,30,29.94,10.0,WNW,5.8,-,N/A,,Clear,300,2012-09-06 18:52:00
2:52 PM,82.0,50.0,33,29.92,10.0,West,10.4,-,N/A,,Clear,270,2012-09-06 19:52:00
3:52 PM,82.0,48.0,30,29.91,10.0,West,3.5,-,N/A,,Clear,270,2012-09-06 20:52:00
4:52 PM,81.0,52.0,36,29.88,10.0,WSW,3.5,-,N/A,,Clear,250,2012-09-06 21:52:00
5:52 PM,80.1,54.0,40,29.89,10.0,Calm,Calm,-,N/A,,Clear,0,2012-09-06 22:52:00
6:52 PM,75.0,59.0,57,29.89,10.0,Calm,Calm,-,N/A,,Clear,0,2012-09-06 23:52:00
7:52 PM,66.0,59.0,78,29.89,10.0,Calm,Calm,-,N/A,,Clear,0,2012-09-07 00:52:00
8:52 PM,64.0,57.9,80,29.89,10.0,Calm,Calm,-,N/A,,Clear,0,2012-09-07 01:52:00
9:52 PM,62.1,55.9,80,29.89,10.0,Calm,Calm,-,N/A,,Clear,0,2012-09-07 02:52:00
10:52 PM,61.0,55.9,83,29.88,10.0,Calm,Calm,-,N/A,,Clear,0,2012-09-07 03:52:00
11:52 PM,60.1,55.9,86,29.88,10.0,SE,3.5,-,N/A,,Clear,140,2012-09-07 04:52:00